Starlink 3808

operational
NORAD ID: 52366 Int'l Des: 2022-045 Owner: SPXS Country: US Constellation: starlink
LEOCIRCULAR

Starlink 3808について

説明を読み込み中...

リアルタイム位置

3D地球を読み込み中...

次回通過

高度履歴

Altitude vs Time

uPlot chart will show altitude changes over time

軌道要素

1 52366U 22045AM 25353.82272084 .00000698 00000-0 61930-4 0 9992
2 52366 53.2140 187.6540 0001383 89.7586 270.3564 15.08839767203868
Epoch: Dec 19, 2025 • Age: 8 hours

現在のステータス

高度 548.2 km
速度 7.59 km/s
衛星直下点 -26.69°S, 22.1°E
打ち上げ日 Apr 29, 2022
運用期間 3.6 years
タイプ internet

技術仕様

分類 Payload
質量 297.00 kg
乾燥質量 275.00 kg
総質量 297.00 kg
長さ 0.20 m
直径 2.80 m
スパン 9.00 m
形状 Box + pan
製造者 SPXS
バスタイプ Starlink
フェーズステータス In Orbit
所有者/国 SPXS/US

大規模コンステレーション

Loading constellations...